[Iaude] MPEC L28: 2024 LH [a=1.34,e=0.25,i=2.4,H=25.2]
    mpec at cfa.harvard.edu 
    mpec at cfa.harvard.edu
       
    Mon Jun  3 06:43:14 EDT 2024
    
    
  
M.P.E.C. 2024-L28                                  Issued 2024 June 3, 10:41 UT
     The Minor Planet Electronic Circulars contain information on unusual
         minor planets, routine data on comets and natural satellites,
         and occasional editorial announcements.  They are published
    on behalf of Division F of the International Astronomical Union by the
          Minor Planet Center, Smithsonian Astrophysical Observatory,
                          Cambridge, MA 02138, U.S.A.
			  
             Prepared using the Tamkin Foundation Computer Network
                              MPC at CFA.HARVARD.EDU
            URL https://www.minorplanetcenter.net/    ISSN 1523-6714
                                    2024 LH                                     
Observations:
     K24L00H* C2024 06 01.33951013 21 31.793+12 24 10.45         21.77wXEL028F51
     K24L00H  C2024 06 01.35106113 21 30.139+12 24 18.30         21.95wXEL028F51
     K24L00H  C2024 06 01.36265713 21 28.523+12 24 26.06         21.38wXEL028F51
     K24L00H  C2024 06 01.48155813 21 13.070+12 25 40.31         21.48GVEL028F51
     K24L00H  C2024 06 01.48220213 21 13.021+12 25 41.10         21.44GVEL028F51
     K24L00H KC2024 06 02.16444513 20 13.247+12 33 48.42         20.56GVEL028I52
     K24L00H KC2024 06 02.16754213 20 12.815+12 33 50.62               VEL028I52
     K24L00H KC2024 06 02.17065513 20 12.365+12 33 52.60         21.33GVEL028I52
     K24L00H KC2024 06 02.17374713 20 11.944+12 33 54.83               VEL028I52
     K24L00H KC2024 06 02.25241 13 20 00.86 +12 34 50.1                VEL028691
     K24L00H KC2024 06 02.26706 13 19 58.90 +12 35 00.0          22.0 RVEL028691
     K24L00H KC2024 06 02.28171 13 19 56.91 +12 35 09.6          21.8 RVEL028691
     K24L00H KC2024 06 03.11795613 18 37.39 +12 45 06.0          21.5 GVEL028H21
     K24L00H KC2024 06 03.12084613 18 37.00 +12 45 08.2          21.5 GVEL028H21
     K24L00H KC2024 06 03.12392913 18 36.57 +12 45 10.3          21.4 GVEL028H21
Observer details:
691 Steward Observatory, Kitt Peak-Spacewatch.  Observer J. V. Scotti.  0.9-m
    f/3 reflector + CCD.
F51 Pan-STARRS 1, Haleakala.  Observers J. Herman, T. Lowe, P. Minguez, A.
    Schultz, I. Smith.  Measurers K. Chambers, T. de Boer, J. Fairlamb, H.
    Gao, M. Huber, C.-C. Lin, E. Magnier, Y. Ramanjooloo, R. Wainscoat, R.
    Weryk.  1.8-m Ritchey-Chretien + CCD.
H21 Astronomical Research Observatory, Westfield.  Observer R. Holmes.
    Measurers T. Linder, R. Holmes, L. Horn.  1.3-m f/4.0 astrograph + CCD.
I52 Steward Observatory, Mt. Lemmon Station.  Observer K. W. Wierzchos.
    Measurers T. Beuden, V. F. Carvajal, D. Fay, J. B. Fazekas, D. C. Fuls, A.
    R. Gibbs, A. D. Grauer, H. Groeller, J. K. Hogan, R. A. Kowalski, S. M.
    Larson, G. J. Leonard, D. Rankin, R. L. Seaman, F. C. Shelly, K. W.
    Wierzchos.  1.0-m prime focus + CCD.
Orbital elements:
2024 LH                                                  Earth MOID = 0.0086 AU
Epoch 2024 Mar. 31.0 TT = JDT 2460400.5                 Veres                   
M 296.43903              (2000.0)            P               Q                  
n   0.63369829     Peri.  185.89997     +0.30900600     +0.95017989             
a   1.3423972      Node   102.10467     -0.87086095     +0.29997481             
e   0.2520291      Incl.    2.39786     -0.38225187     +0.08469530             
P   1.56           H   25.23          G   0.15           U   9                  
Residuals in seconds of arc
240601 F51  0.2-  0.1+    240602 I52  0.2+  0.1+    240602 691  0.3-  0.2+
240601 F51  0.3-  0.0     240602 I52  0.4+  0.0     240602 691  0.7-  0.5+
240601 F51  0.0   0.0     240602 I52  0.3+  0.2-    240603 H21  0.2-  0.1-
240601 F51  0.1+  0.3-    240602 I52  0.6+  0.2-    240603 H21  0.1+  0.1+
240601 F51  0.5+  0.2+    240602 691  0.9-  0.1-    240603 H21  0.2+  0.0
Ephemeris:
2024 LH                  a,e,i = 1.34, 0.25, 2                   q = 1.0041
Date    TT    R. A. (2000) Decl.     Delta      r    Elong.  Phase     V
2024 05 04    14 02 25.6 +05 23 19   0.1443  1.1418   156.2    20.9    22.3
...
2024 05 19    13 41 39.7 +09 28 53   0.1047  1.0918   138.1    38.3    22.1
...
2024 05 27    13 29 52.2 +11 18 01   0.08642 1.0683   127.8    48.5    21.9
...
2024 06 02    13 20 29.4 +12 32 29   0.07320 1.0526   120.0    56.6    21.7
2024 06 03    13 18 50.1 +12 44 36   0.07101 1.0502   118.6    58.0    21.7
2024 06 04    13 17 08.6 +12 56 42   0.06883 1.0478   117.3    59.4    21.7
...
2024 06 10    13 05 47.2 +14 11 49   0.05568 1.0347   108.9    68.1    21.4
...
2024 06 18    12 42 29.0 +16 28 22   0.03789 1.0205    95.7    82.2    21.0
...
2024 07 03    07 31 02.4 +24 37 07   0.01130 1.0056     9.8   170.1    32.6
M. P. C. Staff               (C) Copyright 2024 MPC           M.P.E.C. 2024-L28
    
    
More information about the Iaude
mailing list